,,PA_Meas_PMT16A,,PR_Meas_QMR101_102,,RH_Meas_QMH101,,SR_Meas_QMS101,,TA_Meas_QMH101,,GenWind,,GenWind,
time,status,PA,status,PR,status,RH,status,SR,status,TA,status,DirAvg,status,SpdAvg,
2016-02-22, 08:03:04,VALID,920.999,VALID,0,VALID,96.703,VALID,116.466,VALID,20.9495,VALID,159,VALID,0,
2016-02-22, 08:04:04,VALID,921.008,VALID,0,VALID,96.3752,VALID,120.764,VALID,20.9901,VALID,140,VALID,0.254297,
2016-02-22, 08:05:04,VALID,920.997,VALID,0,VALID,91.6792,VALID,124.524,VALID,21.0096,VALID,140,VALID,0.323438,
2016-02-22, 08:06:04,VALID,921.029,VALID,0,VALID,90.9778,VALID,128.177,VALID,21.0486,VALID,148,VALID,0.390234,
2016-02-22, 08:07:04,VALID,921.011,VALID,0,VALID,91.6716,VALID,131.186,VALID,21.0876,VALID,171,VALID,0.296875,
2016-02-22, 08:08:04,VALID,921.038,VALID,0,VALID,92.9523,VALID,134.194,VALID,21.1445,VALID,150,VALID,0,
2016-02-22, 08:09:04,VALID,921.018,VALID,0,VALID,87.7303,VALID,136.773,VALID,21.2047,VALID,177,VALID,0.107813,
2016-02-22, 08:10:04,VALID,921.027,VALID,0,VALID,86.9603,VALID,139.781,VALID,21.2827,VALID,162,VALID,0.0121094,
2016-02-22, 08:11:04,VALID,921.115,VALID,0,VALID,86.6706,VALID,142.682,VALID,21.3608,VALID,122,VALID,0.130078,
2016-02-22, 08:12:04,VALID,921.12,VALID,0,VALID,85.55,VALID,146.335,VALID,21.3786,VALID,139,VALID,0.608984,
2016-02-22, 08:13:04,VALID,921.138,VALID,0,VALID,84.3302,VALID,149.88,VALID,21.4567,VALID,108,VALID,0.760156,
2016-02-22, 08:14:04,VALID,921.158,VALID,0,VALID,81.784,VALID,153.748,VALID,21.5737,VALID,126,VALID,1.94687,
2016-02-22, 08:15:04,VALID,921.135,VALID,0,VALID,82.1804,VALID,157.724,VALID,21.6518,VALID,137,VALID,0.671484,
2016-02-22, 08:16:04,VALID,921.164,VALID,0,VALID,81.6087,VALID,161.269,VALID,21.6713,VALID,142,VALID,0.20625,
2016-02-22, 08:17:04,VALID,921.169,VALID,0,VALID,82.3024,VALID,164.492,VALID,21.7103,VALID,156,VALID,0,
2016-02-22, 08:18:04,VALID,921.179,VALID,0,VALID,82.371,VALID,167.393,VALID,21.7883,VALID,163,VALID,0,
2016-02-22, 08:19:04,VALID,921.203,VALID,0,VALID,82.2414,VALID,170.294,VALID,21.8859,VALID,181,VALID,0,
2016-02-22, 08:20:04,VALID,921.184,VALID,0,VALID,81.2275,VALID,173.625,VALID,21.9444,VALID,171,VALID,0,
2016-02-22, 08:21:04,VALID,921.197,VALID,0,VALID,81.6087,VALID,177.708,VALID,21.9249,VALID,144,VALID,0,
2016-02-22, 08:22:04,VALID,921.209,VALID,0,VALID,82.5082,VALID,182.543,VALID,21.9054,VALID,117,VALID,0.0078125,
2016-02-22, 08:23:04,VALID,921.247,VALID,0,VALID,83.0419,VALID,187.485,VALID,21.9054,VALID,120,VALID,0,
2016-02-22, 08:24:04,VALID,921.265,VALID,0,VALID,82.9428,VALID,192.535,VALID,21.9054,VALID,141,VALID,0,
2016-02-22, 08:25:04,VALID,921.265,VALID,0,VALID,81.7459,VALID,196.402,VALID,21.9444,VALID,163,VALID,0,
2016-02-22, 08:26:04,VALID,921.281,VALID,0,VALID,82.5387,VALID,199.841,VALID,21.9835,VALID,139,VALID,0,
2016-02-22, 08:27:04,VALID,921.291,VALID,0,VALID,81.8374,VALID,203.171,VALID,22.0632,VALID,140,VALID,0,
2016-02-22, 08:28:04,VALID,921.26,VALID,0,VALID,80.7701,VALID,205.965,VALID,22.0615,VALID,156,VALID,0,
2016-02-22, 08:29:04,VALID,921.28,VALID,0,VALID,81.1208,VALID,208.973,VALID,22.1005,VALID,149,VALID,0,
2016-02-22, 08:30:04,VALID,921.337,VALID,0,VALID,80.206,VALID,212.196,VALID,22.1005,VALID,155,VALID,0,
2016-02-22, 08:31:04,VALID,921.33,VALID,0,VALID,80.9531,VALID,216.064,VALID,22.0598,VALID,160,VALID,0.378516,
2016-02-22, 08:32:04,VALID,921.333,VALID,0,VALID,81.1589,VALID,222.188,VALID,22.1184,VALID,159,VALID,0,
2016-02-22, 08:33:04,VALID,921.348,VALID,0,VALID,80.6481,VALID,227.775,VALID,22.1005,VALID,131,VALID,1.39883,
2016-02-22, 08:34:04,VALID,921.359,VALID,0,VALID,81.5782,VALID,228.635,VALID,22.1022,VALID,132,VALID,0,
2016-02-22, 08:35:04,VALID,921.373,VALID,0,VALID,80.8006,VALID,232.825,VALID,22.1591,VALID,160,VALID,0.00390625,
2016-02-22, 08:36:04,VALID,921.385,VALID,0,VALID,80.2746,VALID,238.09,VALID,22.2176,VALID,138,VALID,0.722266,
2016-02-22, 08:37:04,VALID,921.37,VALID,0,VALID,80.61,VALID,243.891,VALID,22.2567,VALID,130,VALID,0.508984,
2016-02-22, 08:38:04,VALID,921.36,VALID,0,VALID,79.7638,VALID,251.842,VALID,22.2762,VALID,143,VALID,1.22617,
2016-02-22, 08:39:04,VALID,921.359,VALID,0,VALID,79.5351,VALID,259.47,VALID,22.3152,VALID,143,VALID,0.611328,
2016-02-22, 08:40:04,VALID,921.319,VALID,0,VALID,80.1983,VALID,261.942,VALID,22.3737,VALID,133,VALID,0.0289063,
2016-02-22, 08:41:04,VALID,921.341,VALID,0,VALID,79.4665,VALID,267.743,VALID,22.4518,VALID,163,VALID,0.0992187,
2016-02-22, 08:42:04,VALID,921.314,VALID,0,VALID,80.0078,VALID,271.611,VALID,22.5494,VALID,170,VALID,0,
2016-02-22, 08:43:04,VALID,921.316,VALID,0,VALID,79.5427,VALID,277.628,VALID,22.647,VALID,149,VALID,0.15,
2016-02-22, 08:44:04,VALID,921.326,VALID,0,VALID,79.5885,VALID,275.264,VALID,22.6665,VALID,183,VALID,0,
2016-02-22, 08:45:04,VALID,921.303,VALID,0,VALID,79.6495,VALID,278.81,VALID,22.725,VALID,165,VALID,0,
2016-02-22, 08:46:04,VALID,921.314,VALID,0,VALID,79.1158,VALID,278.165,VALID,22.7818,VALID,154,VALID,0.00820312,
2016-02-22, 08:47:04,VALID,921.323,VALID,0,VALID,79.4055,VALID,279.132,VALID,22.9185,VALID,173,VALID,0,
2016-02-22, 08:48:04,VALID,921.339,VALID,0,VALID,77.5149,VALID,269.57,VALID,23.0373,VALID,170,VALID,1.24805,
2016-02-22, 08:49:04,VALID,921.338,VALID,0,VALID,76.9203,VALID,268.71,VALID,22.938,VALID,159,VALID,1.16211,
2016-02-22, 08:50:04,VALID,921.357,VALID,0,VALID,78.5898,VALID,267.958,VALID,22.8794,VALID,164,VALID,1.56094,
2016-02-22, 08:51:04,VALID,921.34,VALID,0,VALID,77.5606,VALID,269.462,VALID,22.8599,VALID,165,VALID,0.457422,
2016-02-22, 08:52:04,VALID,921.356,VALID,0,VALID,77.4158,VALID,272.901,VALID,22.8599,VALID,162,VALID,0.271484,
2016-02-22, 08:53:04,VALID,921.359,VALID,0,VALID,77.8122,VALID,277.628,VALID,22.8989,VALID,157,VALID,0.0105469,
2016-02-22, 08:54:04,VALID,921.367,VALID,0,VALID,77.5759,VALID,282.57,VALID,22.977,VALID,193,VALID,0,
2016-02-22, 08:55:04,VALID,921.348,VALID,0,VALID,77.8275,VALID,282.678,VALID,22.9965,VALID,128,VALID,1.2918,
2016-02-22, 08:56:04,VALID,921.398,VALID,0,VALID,77.2862,VALID,289.984,VALID,22.9753,VALID,139,VALID,0.00117188,
2016-02-22, 08:57:04,VALID,921.377,VALID,0,VALID,76.7449,VALID,290.628,VALID,22.9965,VALID,138,VALID,0.705078,
2016-02-22, 08:58:04,VALID,921.422,VALID,0,VALID,77.7512,VALID,288.157,VALID,22.9753,VALID,177,VALID,0.0296875,
2016-02-22, 08:59:04,VALID,921.427,VALID,0,VALID,77.4158,VALID,287.405,VALID,23.0143,VALID,190,VALID,0,
2016-02-22, 09:00:04,VALID,921.434,VALID,0,VALID,76.8135,VALID,285.579,VALID,23.1722,VALID,165,VALID,0,
2016-02-22, 09:01:04,VALID,921.46,VALID,0,VALID,76.5925,VALID,281.711,VALID,23.2698,VALID,128,VALID,0,
2016-02-22, 09:02:04,VALID,921.498,VALID,0,VALID,75.4337,VALID,282.678,VALID,23.3869,VALID,159,VALID,0.00390625,
2016-02-22, 09:03:04,VALID,921.513,VALID,0,VALID,75.8301,VALID,287.405,VALID,23.3674,VALID,177,VALID,0.0277344,
2016-02-22, 09:04:04,VALID,921.505,VALID,0,VALID,74.1911,VALID,287.513,VALID,23.3478,VALID,200,VALID,0.00507812,
2016-02-22, 09:05:04,VALID,921.505,VALID,0,VALID,75.4337,VALID,290.843,VALID,23.3283,VALID,159,VALID,0.00585938,
2016-02-22, 09:06:04,VALID,921.517,VALID,0,VALID,75.7081,VALID,297.505,VALID,23.3869,VALID,154,VALID,0,
2016-02-22, 09:07:04,VALID,921.525,VALID,0,VALID,74.0844,VALID,308.893,VALID,23.504,VALID,113,VALID,0.259375,
2016-02-22, 09:08:04,VALID,921.538,VALID,0,VALID,75.731,VALID,329.2,VALID,23.4845,VALID,125,VALID,0.309375,
2016-02-22, 09:09:04,VALID,921.514,VALID,0,VALID,75.1288,VALID,373.788,VALID,23.5235,VALID,187,VALID,0.958984,
2016-02-22, 09:10:04,VALID,921.535,VALID,0,VALID,75.144,VALID,386.358,VALID,23.6016,VALID,206,VALID,0.0417969,
2016-02-22, 09:11:04,VALID,921.526,VALID,0,VALID,73.3449,VALID,417.409,VALID,23.6584,VALID,177,VALID,0.792969,
2016-02-22, 09:12:04,VALID,921.499,VALID,0,VALID,73.4135,VALID,510.99,VALID,23.6584,VALID,107,VALID,1.42422,
2016-02-22, 09:13:04,VALID,921.502,VALID,0,VALID,75.1288,VALID,481.014,VALID,23.6211,VALID,89,VALID,0.285547,
2016-02-22, 09:14:04,VALID,921.517,VALID,0,VALID,74.435,VALID,523.668,VALID,23.7169,VALID,196,VALID,0,
2016-02-22, 09:15:04,VALID,921.525,VALID,0,VALID,72.5749,VALID,497.023,VALID,23.9725,VALID,133,VALID,1.46172,
2016-02-22, 09:16:04,VALID,921.538,VALID,0,VALID,72.0032,VALID,507.23,VALID,23.9707,VALID,169,VALID,0.604688,
2016-02-22, 09:17:04,VALID,921.506,VALID,0,VALID,72.3996,VALID,471.129,VALID,23.9707,VALID,180,VALID,0.460156,
2016-02-22, 09:18:04,VALID,921.538,VALID,0,VALID,72.552,VALID,448.137,VALID,24.0488,VALID,170,VALID,1.35234,
2016-02-22, 09:19:04,VALID,921.523,VALID,0,VALID,73.3296,VALID,539.462,VALID,24.1073,VALID,170,VALID,1.18203,
2016-02-22, 09:20:04,VALID,921.538,VALID,0,VALID,73.2305,VALID,608.762,VALID,24.1464,VALID,135,VALID,0.642578,
2016-02-22, 09:21:04,VALID,921.522,VALID,0,VALID,71.7592,VALID,518.189,VALID,24.283,VALID,139,VALID,1.50352,
2016-02-22, 09:22:04,VALID,921.508,VALID,0,VALID,72.6054,VALID,589.745,VALID,24.3221,VALID,170,VALID,2.03945,
2016-02-22, 09:23:04,VALID,921.546,VALID,0,VALID,72.4682,VALID,597.265,VALID,24.4392,VALID,124,VALID,0.715234,
2016-02-22, 09:24:04,VALID,921.521,VALID,0,VALID,71.6449,VALID,619.506,VALID,24.5954,VALID,98,VALID,0.885547,
2016-02-22, 09:25:04,VALID,921.506,VALID,0,VALID,70.326,VALID,528.396,VALID,24.6521,VALID,118,VALID,0.149219,
2016-02-22, 09:26:04,VALID,921.509,VALID,0,VALID,70.448,VALID,480.692,VALID,24.7711,VALID,114,VALID,0.617578,
2016-02-22, 09:27:04,VALID,921.498,VALID,0,VALID,69.6475,VALID,492.403,VALID,24.7888,VALID,167,VALID,1.15547,
2016-02-22, 09:28:04,VALID,921.524,VALID,0,VALID,71.2637,VALID,485.741,VALID,24.9645,VALID,131,VALID,0.666797,
2016-02-22, 09:29:04,VALID,921.506,VALID,0,VALID,69.9677,VALID,459.741,VALID,25.1226,VALID,82,VALID,0.360547,
2016-02-22, 09:30:04,VALID,921.48,VALID,0,VALID,69.1291,VALID,528.073,VALID,25.0621,VALID,92,VALID,0.125,
2016-02-22, 09:31:04,VALID,921.533,VALID,0,VALID,69.6475,VALID,692.781,VALID,25.1617,VALID,157,VALID,0.00585938,
2016-02-22, 09:32:04,VALID,921.536,VALID,0,VALID,68.7785,VALID,517.222,VALID,25.3003,VALID,196,VALID,0.138281,
2016-02-22, 09:33:04,VALID,921.543,VALID,0,VALID,66.8345,VALID,433.31,VALID,25.3374,VALID,206,VALID,1.20156,
2016-02-22, 09:34:04,VALID,921.542,VALID,0,VALID,68.1533,VALID,424.178,VALID,25.2398,VALID,120,VALID,0.000390625,
2016-02-22, 09:35:04,VALID,921.549,VALID,0,VALID,68.7175,VALID,430.302,VALID,24.9664,VALID,109,VALID,2.10703,
2016-02-22, 09:36:04,VALID,921.547,VALID,0,VALID,68.8013,VALID,425.682,VALID,24.693,VALID,130,VALID,1.41094,
2016-02-22, 09:37:04,VALID,921.554,VALID,0,VALID,70.8444,VALID,492.94,VALID,24.6735,VALID,174,VALID,0,
2016-02-22, 09:38:04,VALID,921.605,VALID,0,VALID,68.8471,VALID,467.369,VALID,24.8883,VALID,339,VALID,0.0105469,
2016-02-22, 09:39:04,VALID,921.587,VALID,0,VALID,69.1139,VALID,573.843,VALID,25.0055,VALID,134,VALID,0.303516,
2016-02-22, 09:40:04,VALID,921.597,VALID,0,VALID,69.0986,VALID,504.544,VALID,25.025,VALID,71,VALID,0.885156,
2016-02-22, 09:41:04,VALID,921.607,VALID,0,VALID,69.5484,VALID,539.462,VALID,25.0817,VALID,168,VALID,0.194922,
2016-02-22, 09:42:04,VALID,921.61,VALID,0,VALID,69.1291,VALID,532.586,VALID,25.2398,VALID,140,VALID,0.0105469,
2016-02-22, 09:43:04,VALID,921.619,VALID,0,VALID,68.1228,VALID,568.364,VALID,25.1793,VALID,191,VALID,0.585938,
2016-02-22, 09:44:04,VALID,921.602,VALID,0,VALID,66.7506,VALID,524.205,VALID,25.2183,VALID,160,VALID,1.81289,
2016-02-22, 09:45:04,VALID,921.674,VALID,0,VALID,68.2601,VALID,597.695,VALID,25.2007,VALID,137,VALID,0.730078,
2016-02-22, 09:46:04,VALID,921.636,VALID,0,VALID,66.8192,VALID,468.229,VALID,25.0817,VALID,161,VALID,3.08789,
2016-02-22, 09:47:04,VALID,921.618,VALID,0,VALID,67.7112,VALID,437.285,VALID,24.9645,VALID,193,VALID,0.0394531,
2016-02-22, 09:48:04,VALID,921.613,VALID,0,VALID,68.4888,VALID,417.839,VALID,24.9645,VALID,139,VALID,1.82734,
2016-02-22, 09:49:04,VALID,921.594,VALID,0,VALID,68.5116,VALID,471.344,VALID,24.8864,VALID,184,VALID,0.00585938,
2016-02-22, 09:50:04,VALID,921.612,VALID,0,VALID,69.1444,VALID,523.561,VALID,24.9645,VALID,202,VALID,0.505859,
2016-02-22, 09:51:04,VALID,921.595,VALID,0,VALID,68.1762,VALID,627.456,VALID,25.0231,VALID,149,VALID,1.7918,
2016-02-22, 09:52:04,VALID,921.594,VALID,0,VALID,69.0986,VALID,562.562,VALID,25.0231,VALID,139,VALID,1.30156,
2016-02-22, 09:53:04,VALID,921.62,VALID,0,VALID,69.1291,VALID,529.148,VALID,25.0231,VALID,142,VALID,0.934375,
2016-02-22, 09:54:04,VALID,921.612,VALID,0,VALID,68.0237,VALID,546.983,VALID,25.0036,VALID,184,VALID,2.48164,
2016-02-22, 09:55:04,VALID,921.606,VALID,0,VALID,68.8623,VALID,556.438,VALID,25.0231,VALID,183,VALID,0.282422,
2016-02-22, 09:56:04,VALID,921.668,VALID,0,VALID,67.2385,VALID,435.352,VALID,25.1793,VALID,186,VALID,1.80742,
2016-02-22, 09:57:04,VALID,921.69,VALID,0,VALID,65.813,VALID,425.682,VALID,25.316,VALID,147,VALID,0.116406,
2016-02-22, 09:58:04,VALID,921.688,VALID,0,VALID,66.6973,VALID,524.528,VALID,25.1402,VALID,167,VALID,1.025,
2016-02-22, 09:59:04,VALID,921.696,VALID,0,VALID,68.3668,VALID,472.096,VALID,25.1207,VALID,160,VALID,0.710547,
2016-02-22, 10:00:04,VALID,921.726,VALID,0,VALID,67.3453,VALID,411.607,VALID,25.2164,VALID,160,VALID,0.928125,
2016-02-22, 10:01:04,VALID,921.751,VALID,0,VALID,66.4305,VALID,403.119,VALID,25.355,VALID,168,VALID,0.563672,
2016-02-22, 10:02:04,VALID,921.759,VALID,0,VALID,65.9883,VALID,445.021,VALID,25.4136,VALID,174,VALID,1.81914,
2016-02-22, 10:03:04,VALID,921.781,VALID,0,VALID,66.4838,VALID,467.476,VALID,25.2183,VALID,118,VALID,3.23867,
2016-02-22, 10:04:04,VALID,921.767,VALID,0,VALID,68.039,VALID,445.236,VALID,24.9645,VALID,155,VALID,0.277344,
2016-02-22, 10:05:04,VALID,921.78,VALID,0,VALID,69.1139,VALID,467.262,VALID,25.0621,VALID,192,VALID,0,
2016-02-22, 10:06:04,VALID,921.732,VALID,0,VALID,67.6731,VALID,484.345,VALID,25.2183,VALID,197,VALID,1.18398,
2016-02-22, 10:07:04,VALID,921.761,VALID,0,VALID,67.4977,VALID,591.356,VALID,25.316,VALID,169,VALID,0.784766,
2016-02-22, 10:08:04,VALID,921.758,VALID,0,VALID,66.5067,VALID,711.69,VALID,25.4136,VALID,190,VALID,1.54414,
2016-02-22, 10:09:04,VALID,921.72,VALID,0,VALID,65.7977,VALID,730.6,VALID,25.5698,VALID,125,VALID,0.851563,
2016-02-22, 10:10:04,VALID,921.781,VALID,0,VALID,67.0174,VALID,600.059,VALID,25.6675,VALID,146,VALID,1.34492,
2016-02-22, 10:11:04,VALID,921.787,VALID,0,VALID,66.156,VALID,611.77,VALID,25.8042,VALID,126,VALID,1.17656,
2016-02-22, 10:12:04,VALID,921.815,VALID,0,VALID,64.5932,VALID,605.109,VALID,25.8648,VALID,175,VALID,1.09297,
2016-02-22, 10:13:04,VALID,921.729,VALID,0,VALID,65.8511,VALID,698.367,VALID,25.9019,VALID,80,VALID,2.40391,
2016-02-22, 10:14:04,VALID,921.728,VALID,0,VALID,65.4089,VALID,765.733,VALID,25.8433,VALID,158,VALID,1.29375,
2016-02-22, 10:15:04,VALID,921.712,VALID,0,VALID,64.3645,VALID,746.716,VALID,25.8433,VALID,111,VALID,0,
2016-02-22, 10:16:04,VALID,921.758,VALID,0,VALID,64.9439,VALID,536.131,VALID,25.8237,VALID,133,VALID,1.88945,
2016-02-22, 10:17:04,VALID,921.727,VALID,0,VALID,65.6147,VALID,500.783,VALID,25.6675,VALID,111,VALID,2.32813,
2016-02-22, 10:18:04,VALID,921.704,VALID,0,VALID,66.1865,VALID,587.918,VALID,25.648,VALID,137,VALID,1.73633,
2016-02-22, 10:19:04,VALID,921.739,VALID,0,VALID,66.0416,VALID,583.083,VALID,25.6089,VALID,152,VALID,2.15898,
2016-02-22, 10:20:04,VALID,921.71,VALID,0,VALID,65.8206,VALID,550.958,VALID,25.646,VALID,162,VALID,0.401953,
2016-02-22, 10:21:04,VALID,921.733,VALID,0,VALID,65.0964,VALID,581.257,VALID,25.7456,VALID,155,VALID,0.608594,
2016-02-22, 10:22:04,VALID,921.706,VALID,0,VALID,63.808,VALID,527.321,VALID,25.7651,VALID,173,VALID,1.83086,
2016-02-22, 10:23:04,VALID,921.686,VALID,0,VALID,64.2806,VALID,529.04,VALID,25.9019,VALID,218,VALID,0.169922,
2016-02-22, 10:24:04,VALID,921.726,VALID,0,VALID,65.0735,VALID,547.413,VALID,26.1558,VALID,172,VALID,0,
2016-02-22, 10:25:04,VALID,921.716,VALID,0,VALID,64.1663,VALID,525.71,VALID,26.3902,VALID,200,VALID,0,
2016-02-22, 10:26:04,VALID,921.722,VALID,0,VALID,64.8829,VALID,607.365,VALID,26.4683,VALID,134,VALID,0.119531,
2016-02-22, 10:27:04,VALID,921.725,VALID,0,VALID,66.1636,VALID,589.315,VALID,26.4488,VALID,114,VALID,0.341406,
2016-02-22, 10:28:04,VALID,921.691,VALID,0,VALID,63.9681,VALID,607.795,VALID,26.312,VALID,63,VALID,2.4043,
2016-02-22, 10:29:04,VALID,921.753,VALID,0,VALID,65.2031,VALID,653.027,VALID,26.2144,VALID,174,VALID,0.0898438,
2016-02-22, 10:30:04,VALID,921.703,VALID,0,VALID,62.3367,VALID,504.759,VALID,26.273,VALID,121,VALID,0.260156,
2016-02-22, 10:31:04,VALID,921.727,VALID,0,VALID,64.5856,VALID,498.205,VALID,26.1558,VALID,143,VALID,0,
2016-02-22, 10:32:04,VALID,921.713,VALID,0,VALID,63.869,VALID,539.892,VALID,26.1167,VALID,125,VALID,0.942187,
2016-02-22, 10:33:04,VALID,921.712,VALID,0,VALID,64.8372,VALID,613.382,VALID,26.0757,VALID,187,VALID,1.55391,
2016-02-22, 10:34:04,VALID,921.742,VALID,0,VALID,64.1739,VALID,670.863,VALID,26.2319,VALID,169,VALID,1.06719,
2016-02-22, 10:35:04,VALID,921.723,VALID,0,VALID,64.6085,VALID,709.219,VALID,26.3882,VALID,143,VALID,0.117188,
2016-02-22, 10:36:04,VALID,921.693,VALID,0,VALID,63.099,VALID,667.962,VALID,26.4683,VALID,198,VALID,0.177734,
2016-02-22, 10:37:04,VALID,921.701,VALID,0,VALID,60.8196,VALID,625.845,VALID,26.6636,VALID,182,VALID,1.23789,
2016-02-22, 10:38:04,VALID,921.648,VALID,0,VALID,61.4905,VALID,603.282,VALID,26.7613,VALID,191,VALID,1.23789,
2016-02-22, 10:39:04,VALID,921.684,VALID,0,VALID,60.5985,VALID,595.976,VALID,26.8179,VALID,175,VALID,0.0328125,
2016-02-22, 10:40:04,VALID,921.662,VALID,0,VALID,63.3658,VALID,650.234,VALID,26.7593,VALID,167,VALID,0.0375,
2016-02-22, 10:41:04,VALID,921.65,VALID,0,VALID,64.2425,VALID,691.706,VALID,26.8004,VALID,136,VALID,0.757031,
2016-02-22, 10:42:04,VALID,921.662,VALID,0,VALID,63.4192,VALID,839.33,VALID,26.8004,VALID,120,VALID,0.867969,
2016-02-22, 10:43:04,VALID,921.639,VALID,0,VALID,60.4461,VALID,769.494,VALID,26.7027,VALID,144,VALID,0.244531,
2016-02-22, 10:44:04,VALID,921.628,VALID,0,VALID,61.7725,VALID,708.682,VALID,26.7007,VALID,95,VALID,0.084375,
2016-02-22, 10:45:04,VALID,921.593,VALID,0,VALID,62.1385,VALID,646.473,VALID,26.7202,VALID,72,VALID,2.10977,
2016-02-22, 10:46:04,VALID,921.612,VALID,0,VALID,61.2694,VALID,615.315,VALID,26.7223,VALID,140,VALID,0.115625,
2016-02-22, 10:47:04,VALID,921.621,VALID,0,VALID,60.5909,VALID,597.05,VALID,26.7398,VALID,152,VALID,0.0183594,
2016-02-22, 10:48:04,VALID,921.616,VALID,0,VALID,59.516,VALID,605.109,VALID,26.6421,VALID,147,VALID,1.78398,
2016-02-22, 10:49:04,VALID,921.662,VALID,0,VALID,60.4766,VALID,608.869,VALID,26.564,VALID,127,VALID,3.22148,
2016-02-22, 10:50:04,VALID,921.63,VALID,0,VALID,61.0331,VALID,612.307,VALID,26.4272,VALID,126,VALID,0.913672,
2016-02-22, 10:51:04,VALID,921.682,VALID,0,VALID,62.2071,VALID,684.83,VALID,26.4878,VALID,139,VALID,2.59766,
2016-02-22, 10:52:04,VALID,921.647,VALID,0,VALID,63.2057,VALID,606.398,VALID,26.4272,VALID,131,VALID,1.23906,
2016-02-22, 10:53:04,VALID,921.653,VALID,0,VALID,61.0331,VALID,609.191,VALID,26.4057,VALID,139,VALID,1.11992,
2016-02-22, 10:54:04,VALID,921.661,VALID,0,VALID,61.3075,VALID,571.909,VALID,26.3882,VALID,123,VALID,2.30156,
2016-02-22, 10:55:04,VALID,921.646,VALID,0,VALID,62.2757,VALID,558.157,VALID,26.4272,VALID,152,VALID,0.00585938,
2016-02-22, 10:56:04,VALID,921.655,VALID,0,VALID,61.0254,VALID,553.107,VALID,26.4663,VALID,143,VALID,0.301953,
2016-02-22, 10:57:04,VALID,921.61,VALID,0,VALID,59.9505,VALID,581.686,VALID,26.4858,VALID,108,VALID,1.5332,
2016-02-22, 10:58:04,VALID,921.628,VALID,0,VALID,59.6227,VALID,603.604,VALID,26.3882,VALID,132,VALID,2.53906,
2016-02-22, 10:59:04,VALID,921.598,VALID,0,VALID,61.6658,VALID,565.678,VALID,26.3882,VALID,133,VALID,1.83164,
2016-02-22, 11:00:04,VALID,921.612,VALID,0,VALID,60.2021,VALID,537.421,VALID,26.4057,VALID,134,VALID,2.03633,
2016-02-22, 11:01:04,VALID,921.593,VALID,0,VALID,61.6124,VALID,520.338,VALID,26.269,VALID,150,VALID,2.60703,
2016-02-22, 11:02:04,VALID,921.577,VALID,0,VALID,62.6264,VALID,513.784,VALID,26.3882,VALID,143,VALID,0.386328,
2016-02-22, 11:03:04,VALID,921.601,VALID,0,VALID,59.8209,VALID,528.288,VALID,26.3882,VALID,159,VALID,0.967969,
2016-02-22, 11:04:04,VALID,921.571,VALID,0,VALID,61.3228,VALID,555.471,VALID,26.4468,VALID,112,VALID,0.551172,
2016-02-22, 11:05:04,VALID,921.577,VALID,0,VALID,61.9784,VALID,557.942,VALID,26.4663,VALID,113,VALID,0.819922,
2016-02-22, 11:06:04,VALID,921.517,VALID,0,VALID,61.3075,VALID,589.53,VALID,26.4077,VALID,94,VALID,1.68477,
2016-02-22, 11:07:04,VALID,921.553,VALID,0,VALID,63.5336,VALID,652.383,VALID,26.4838,VALID,105,VALID,0.738672,
2016-02-22, 11:08:04,VALID,921.565,VALID,0,VALID,60.8958,VALID,663.879,VALID,26.564,VALID,171,VALID,0.909766,
2016-02-22, 11:09:04,VALID,921.542,VALID,0,VALID,58.8833,VALID,647.011,VALID,26.6421,VALID,176,VALID,1.80508,
2016-02-22, 11:10:04,VALID,921.506,VALID,0,VALID,58.99,VALID,655.606,VALID,26.7398,VALID,173,VALID,1.07305,
2016-02-22, 11:11:04,VALID,921.463,VALID,0,VALID,58.3801,VALID,692.028,VALID,26.896,VALID,178,VALID,0.767969,
2016-02-22, 11:12:04,VALID,921.484,VALID,0,VALID,60.5604,VALID,661.3,VALID,27.0698,VALID,174,VALID,0.199609,
2016-02-22, 11:13:04,VALID,921.459,VALID,0,VALID,58.0904,VALID,607.257,VALID,27.1675,VALID,180,VALID,0.2625,
2016-02-22, 11:14:04,VALID,921.451,VALID,0,VALID,59.5236,VALID,600.166,VALID,27.2281,VALID,81,VALID,0.253906,
2016-02-22, 11:15:04,VALID,921.416,VALID,0,VALID,55.7958,VALID,572.984,VALID,27.2693,VALID,188,VALID,1.27305,
2016-02-22, 11:16:04,VALID,921.405,VALID,0,VALID,57.0079,VALID,557.19,VALID,27.1716,VALID,168,VALID,1.39063,
2016-02-22, 11:17:04,VALID,921.374,VALID,0,VALID,57.229,VALID,553.752,VALID,27.0348,VALID,140,VALID,0.352344,
2016-02-22, 11:18:04,VALID,921.386,VALID,0,VALID,58.2658,VALID,544.834,VALID,27.0935,VALID,156,VALID,0.0183594,
2016-02-22, 11:19:04,VALID,921.362,VALID,0,VALID,57.8236,VALID,530.759,VALID,26.9176,VALID,130,VALID,3.03086,
2016-02-22, 11:20:04,VALID,921.329,VALID,0,VALID,59.92,VALID,545.264,VALID,26.5835,VALID,125,VALID,2.49844,
2016-02-22, 11:21:04,VALID,921.321,VALID,0,VALID,61.5133,VALID,538.495,VALID,26.4663,VALID,155,VALID,1.32656,
2016-02-22, 11:22:04,VALID,921.311,VALID,0,VALID,61.4828,VALID,556.33,VALID,26.5855,VALID,171,VALID,1.06641,
2016-02-22, 11:23:04,VALID,921.279,VALID,0,VALID,60.8958,VALID,600.811,VALID,26.5855,VALID,168,VALID,0.273047,
2016-02-22, 11:24:04,VALID,921.242,VALID,0,VALID,60.9873,VALID,776.477,VALID,26.7593,VALID,143,VALID,0.333203,
2016-02-22, 11:25:04,VALID,921.213,VALID,0,VALID,58.6774,VALID,716.847,VALID,26.9156,VALID,88,VALID,0.741016,
2016-02-22, 11:26:04,VALID,921.216,VALID,0,VALID,59.8819,VALID,804.519,VALID,27.1325,VALID,184,VALID,0.896875,
2016-02-22, 11:27:04,VALID,921.242,VALID,0,VALID,60.7205,VALID,722.649,VALID,27.2281,VALID,173,VALID,1.1668,
2016-02-22, 11:28:04,VALID,921.194,VALID,0,VALID,60.9416,VALID,732.104,VALID,27.3279,VALID,64,VALID,0.822266,
2016-02-22, 11:29:04,VALID,921.2,VALID,0,VALID,60.9035,VALID,668.177,VALID,27.4235,VALID,151,VALID,0.0375,
2016-02-22, 11:30:04,VALID,921.179,VALID,0,VALID,59.2873,VALID,655.391,VALID,27.4061,VALID,146,VALID,1.17109,
2016-02-22, 11:31:04,VALID,921.141,VALID,0,VALID,61.1169,VALID,742.418,VALID,27.2107,VALID,86,VALID,2.55156,
2016-02-22, 11:32:04,VALID,921.162,VALID,0,VALID,60.0192,VALID,867.48,VALID,27.15,VALID,140,VALID,0.282813,
2016-02-22, 11:33:04,VALID,921.144,VALID,0,VALID,59.8667,VALID,814.941,VALID,27.1305,VALID,126,VALID,1.97031,
2016-02-22, 11:34:04,VALID,921.151,VALID,0,VALID,58.4868,VALID,728.988,VALID,27.0698,VALID,186,VALID,0.385156,
2016-02-22, 11:35:04,VALID,921.135,VALID,0,VALID,60.5985,VALID,774.651,VALID,27.187,VALID,143,VALID,0.425,
2016-02-22, 11:36:04,VALID,921.124,VALID,0,VALID,58.0676,VALID,605.646,VALID,27.1089,VALID,147,VALID,1.89375,
2016-02-22, 11:37:04,VALID,921.102,VALID,0,VALID,59.4093,VALID,516.04,VALID,27.0112,VALID,137,VALID,0.465234,
2016-02-22, 11:38:04,VALID,921.095,VALID,0,VALID,61.1932,VALID,494.874,VALID,27.0307,VALID,186,VALID,0.0101562,